Location: ???????
(30.0771°N, 31.2859°E)
Time: 23:18:44
(UTC+00:00)

Daily predictions for brighter satellites

Satellite Brightness Start Highest point End
(mag) Time Altitude Azimuth Time Altitude Azimuth Time Altitude Azimuth
NOSS 3-4 (A) 3.5 17:14:41 10° S 17:19:36 40° ESE 17:24:37 10° NE
NOSS 3-4 (C) 3.5 17:14:49 10° S 17:19:42 39° ESE 17:24:42 10° NE
Cosmos 1461 3.4 17:16:56 10° SW 17:20:33 57° WNW 17:24:19 10° NNE
Cosmos 1766 Rocket 3.6 17:16:32 10° N 17:20:50 84° W 17:25:06 10° S
USA 186 3.4 17:20:57 10° ESE 17:22:35 15° ENE 17:24:13 10° NE
Cosmos 1420 Rocket 4.1 17:17:28 10° N 17:22:39 62° ENE 17:27:45 10° SSE
Cosmos 1766 3.5 17:21:23 10° N 17:24:38 39° E 17:27:53 10° SSE
Cosmos 1821 Rocket 4.3 17:21:20 10° N 17:27:28 73° W 17:33:40 10° S
SJ-6B 3.1 17:24:08 10° S 17:27:52 67° W 17:31:37 10° NNW
OAO 3 Rocket 3.3 17:24:02 10° WNW 17:28:55 82° NNE 17:33:45 10° ESE
Meteor 2-4 Rocket 3.9 17:23:38 10° S 17:29:27 67° E 17:35:19 10° NNE
SL-08 R/B 3.2 17:29:49 10° NNE 17:34:27 83° ESE 17:39:01 10° S
Cosmos 1818 4.5 17:32:21 10° SSE 17:36:49 27° ESE 17:41:17 10° NE
Cosmos 1934 Rocket 4.4 17:30:46 10° N 17:36:51 46° E 17:42:52 10° SSE
COSMOS 2428 3.9 17:35:59 10° N 17:40:45 27° ENE 17:45:02 12° ESE
Delta 2 Rocket 4.3 17:38:14 10° WNW 17:41:55 40° N 17:45:50 10° E
Cosmos 2297 Rocket 2.4 17:38:44 10° S 17:44:09 48° ESE 17:49:34 10° NNE
Cosmos 1048 Rocket 4.0 17:43:20 10° SSW 17:48:26 88° WNW 17:53:35 10° NNE
GENESIS II 3.3 17:46:13 10° NNW 17:49:04 72° ENE 17:51:10 17° SE
USA 305 2.6 17:50:17 10° SW 17:54:09 89° NW 17:58:04 10° NE
Cosmos 1408 Rocket 3.6 17:51:55 10° N 17:56:06 54° E 17:59:45 13° SSE
Cosmos 1500 Rocket 3.9 17:53:57 10° N 17:58:13 47° E 18:01:31 16° SSE
Sich 1 3.0 17:54:53 10° N 17:59:00 61° E 18:02:33 14° SSE
CZ-4B R/B 3.9 17:59:48 16° SE 18:03:34 47° ENE 18:08:28 10° N
IUS-18 SRM-1 3.5 17:50:49 10° WSW 18:05:32 67° S 18:08:25 17° E
Delta 198 3.8 18:05:13 10° WSW 18:08:46 35° S 18:10:07 26° SE
Cosmos 2322 Rocket 4.3 18:05:05 10° NW 18:09:19 22° W 18:13:32 10° SSW
Cosmos 2360 Rocket 4.1 18:05:52 10° NW 18:10:29 27° WSW 18:15:06 10° SSW
Cosmos 2227 Rocket 2.7 18:07:49 11° SSE 18:12:45 36° ESE 18:17:51 10° NE
Centaur D AC-28 4.5 18:05:56 10° W 18:12:47 62° S 19:34:54 10° ESE
Centaur D AC-28 4.5 18:05:57 10° W 18:12:47 62° S 19:34:54 10° ESE
Cosmos 1908 3.6 18:09:58 10° NNW 18:13:03 47° W 18:15:53 12° SSW
Meteor PRIRODA 3.8 18:12:37 30° E 18:13:07 33° ENE 18:15:46 10° N
Meteor 2-15 Rocket 4.4 18:08:13 10° N 18:14:16 69° E 18:19:09 16° SSE
Cosmos 2322 3.7 18:10:55 10° NNW 18:16:37 69° ENE 18:20:19 22° SSE
Terra 2.8 18:15:34 23° ESE 18:17:25 30° ENE 18:21:29 10° NNE
Cosmos 1452 Rocket 4.5 18:12:46 10° N 18:17:26 31° ENE 18:19:37 23° ESE
Cosmos 2263 Rocket 3.7 18:18:12 17° E 18:18:12 17° E 18:21:24 10° ENE
SPOT 5 2.6 18:15:05 19° SSE 18:18:12 80° ENE 18:22:49 10° N
CZ-4 R/B 2.8 18:16:18 10° SSW 18:19:43 32° W 18:23:07 10° NW
Cosmos 1805 Rocket 3.4 18:17:34 10° N 18:21:55 89° E 18:24:45 21° S
SL-24 DEB 4.1 18:20:48 20° SSE 18:23:57 77° E 18:28:32 10° N
Helios 1A 2.7 18:20:08 10° NNE 18:24:04 69° ESE 18:26:37 21° S
NOSS 3-2 (C) 4.3 18:16:47 10° NNW 18:24:54 78° ENE 18:31:14 23° SE
CZ-4B R/B 3.2 18:22:32 16° S 18:26:52 78° WSW 18:32:11 10° NNW
FUSE 4.3 18:22:10 10° WSW 18:27:15 46° S 18:29:19 31° SE
RESURS DK-1 3.5 18:28:18 24° E 18:28:18 24° E 18:30:45 10° NE
Okean O Rocket 1.5 18:29:24 33° SSE 18:31:13 66° ENE 18:35:28 10° N
Meteor 2-8 Rocket 4.4 18:26:28 10° N 18:32:35 74° E 18:36:23 24° SSE
Cosmos 2219 4.4 18:38:47 23° E 18:38:47 23° E 18:42:32 10° NE
Helios 1B rocket 2.2 18:37:16 38° S 18:38:34 74° W 18:42:14 10° NNW
ERS-1 Rocket 3.0 18:37:21 34° SE 18:39:26 65° ENE 18:44:24 10° N
NOSS 2-2 (E) 4.3 18:34:42 10° NNW 18:39:27 61° ENE 18:42:11 33° SE
Cosmos 1535 Rocket 4.5 18:33:22 10° N 18:39:29 80° W 18:43:56 20° S
CZ-4B R/B 2.9 18:38:49 33° SSW 18:40:11 60° W 18:43:38 10° NNW
Resurs 01 Rocket 4.4 18:38:59 10° WSW 18:40:48 12° W 18:42:38 10° WNW
Cosmos 1300 2.0 18:38:47 10° N 18:41:55 86° E 18:41:57 85° ESE
Cosmos 921 Rocket 2.8 18:41:01 36° S 18:42:39 73° ESE 18:46:55 10° NNE
Cosmos 1605 Rocket 3.9 18:37:00 10° N 18:43:07 85° W 18:47:02 23° S
IRS-1A Rocket 4.4 18:41:02 34° SE 18:43:25 59° ENE 18:48:55 10° N
Cosmos 1743 Rocket 3.8 18:41:45 10° NNW 18:46:01 64° W 18:47:57 31° SSW
Cosmos 2219 Rocket 4.1 18:43:07 10° NW 18:47:24 23° WSW 18:51:39 10° SSW
SL-14 R/B 3.1 18:52:14 69° ESE 18:52:25 71° E 18:56:19 10° N
In-Cosmos 22 4.3 18:49:04 16° SSW 18:53:43 78° W 18:59:25 10° N
USA 215 3.3 18:55:30 34° SSE 18:58:28 68° SW 19:04:57 10° NW
Cosmos 1459 Rocket 4.5 18:57:59 10° N 19:03:57 41° E 19:04:58 39° ESE
Sakura Rocket 3.0 19:00:45 10° W 19:04:52 72° S 19:05:10 69° SSE
Cosmos 2237 Rocket 2.3 19:00:15 10° N 19:05:51 57° ENE 19:06:54 49° ESE
SL-4 R/B 4.4 19:14:00 14° NE 19:14:00 14° NE 19:14:36 10° NE
OAO 3 Rocket 4.4 19:07:38 10° W 19:11:29 29° SW 19:11:29 29° SW
Okean-O 3.2 19:12:53 43° SW 19:13:43 50° W 19:17:59 10° NNW
Meteor 2-10 Rocket 3.5 19:08:18 10° N 19:13:57 89° E 19:15:04 58° S
DNEPR-1 R/B 4.3 19:08:42 10° SSW 19:15:32 88° ESE 19:21:06 10° NNE
Cosmos 1666 Rocket 3.6 19:13:16 10° N 19:17:42 73° W 19:17:54 72° WSW
Delta 2 Rocket 3.8 19:17:15 10° WNW 19:20:29 55° W 19:20:29 55° W
Meteor 1-22 Rocket 4.4 19:17:43 10° N 19:22:58 52° E 19:22:58 52° E
COSMOS 2428 4.0 19:19:53 10° NW 19:24:53 32° WSW 19:27:02 25° SW
BREEZE-M DEB (TANK) 3.5 19:16:48 10° NW 19:26:20 47° NNE 19:27:01 43° NE
Cosmos 1633 Rocket 3.3 19:23:35 10° NNW 19:27:33 65° WNW 19:27:33 65° WNW
Lacrosse 4 Rocket 3.2 19:26:04 10° N 19:28:31 22° NE 19:28:31 22° NE
Ariane Rocket 3.1 19:29:52 64° ENE 19:29:52 64° ENE 19:34:42 10° N
SPOT 3 Rocket 3.4 19:34:02 79° NE 19:34:02 79° NE 19:39:03 10° N
Cosmos 1269 Rocket 4.3 19:40:14 55° NE 19:40:14 55° NE 19:44:28 10° NNE
ARIANE 6 FM1 Upper Stage 3.6 19:37:09 10° NNW 19:40:10 46° NW 19:40:10 46° NW
Cosmos 1470 Rocket 4.4 19:44:03 10° NNW 19:47:20 47° NW 19:47:20 47° NW
ATLAS 2A CENTAUR R/B 4.1 19:46:12 10° W 19:50:35 23° WSW 19:50:35 23° WSW
Cosmos 1302 Rocket 4.3 19:47:01 10° NNW 19:51:53 59° W 19:51:53 59° W
Cosmos 2173 Rocket 4.0 19:46:17 10° NNW 19:52:22 68° W 19:52:58 64° SW
Meteor 1-23 Rocket 4.3 19:53:18 69° W 19:53:24 70° W 19:58:58 10° N
Terra 3.8 19:54:12 19° WSW 19:54:54 20° W 19:58:17 10° NW
Centaur D-1A AC-32 4.1 19:10:33 10° WSW 19:55:50 58° S 19:56:54 55° SSE
Cosmos 2227 Rocket 4.3 19:52:19 10° WSW 19:56:47 24° WNW 20:01:15 10° N
Cosmos 1992 Rocket 4.4 19:54:04 10° NNW 19:58:12 56° N 19:58:12 56° N
Cosmos 1864 Rocket 4.3 19:53:12 10° N 19:59:22 89° N 19:59:22 89° N
Meteor 1-21 4.3 19:59:50 76° NNW 19:59:50 76° NNW 20:05:12 10° N
ATLAS CENTAUR R/B 3.5 19:56:13 10° NNW 19:57:42 22° N 19:57:42 22° N
SL-16 R/B 3.0 19:55:11 10° N 19:59:47 41° NE 19:59:47 41° NE
Cosmos 2263 Rocket 3.0 19:59:45 38° WSW 20:01:15 47° WNW 20:06:43 10° N
Cosmos 2233 Rocket 4.3 19:59:29 10° N 20:05:03 56° NE 20:05:03 56° NE
COSMOS 2455 3.1 20:01:47 10° NNW 20:07:19 62° W 20:07:19 62° W
Cosmos 1725 Rocket 4.1 20:11:12 10° N 20:17:14 70° WNW 20:17:14 70° WNW
Cosmos 2219 4.5 20:20:35 32° W 20:21:56 36° WNW 20:27:12 10° N
Cosmos 2237 Rocket 4.5 20:46:30 10° WNW 20:48:43 14° W 20:48:43 14° W
Cosmos 1844 Rocket 3.9 21:13:11 37° N 21:13:11 37° N 21:16:39 10° NNE
USA 234 4.2 21:12:39 10° NE 21:16:31 39° NE 21:16:31 39° NE
ATLAS 2AS CENTAUR R/B 3.2 21:37:43 55° NNE 21:37:43 55° NNE 21:42:59 10° NNE
SL-12 R/B(2) 4.2 21:48:12 74° NNE 21:48:12 74° NNE 21:56:10 10° NNE
Cosmos 2344 4.2 21:41:13 10° NNW 21:50:23 81° ENE 21:52:06 68° SE
SeaSat 1 4.4 21:57:55 25° NNE 21:57:55 25° NNE 22:00:18 10° N
Cosmos 2278 Rocket 4.1 22:29:17 21° ENE 22:29:17 21° ENE 22:31:42 10° NE
CZ-2C R/B 4.2 22:33:05 29° NE 22:33:05 29° NE 22:36:22 10° N
Cosmos 1943 Rocket 4.1 22:36:09 21° ENE 22:36:09 21° ENE 22:38:28 10° NE
SJ 16-02 4.2 22:38:57 13° NNW 22:38:57 13° NNW 22:39:39 10° NNW
USA 59 Rocket 2.8 23:07:58 10° NNW 23:08:26 13° NNW 23:08:26 13° NNW
ADEOS II 4.4 23:16:05 10° ENE 23:18:49 14° E 23:19:00 14° E
ATLAS 3B R/B 3.9 23:12:48 10° NNW 23:20:07 42° NE 23:26:17 13° ESE
Cosmos 2026 Rocket 4.4 23:21:59 57° E 23:21:59 57° E 23:27:47 10° NNE
FENGYUN 3A 4.3 23:30:14 10° NNE 23:34:43 48° ENE 23:34:43 48° ENE
Atlas Centaur 2 3.5 23:40:33 43° SE 23:40:33 43° SE 23:47:12 10° E
IDEFIX/ARIANE 42P 3.2 23:37:28 10° N 23:41:28 52° N 23:41:28 52° N
H-2A R/B 3.8 23:38:42 10° NNE 23:40:40 28° NNE 23:40:40 28° NNE
Milstar 3 4.5 23:23:28 10° W 23:43:08 48° SW 23:53:26 10° SE
Cosmos 1833 Rocket 3.4 23:40:15 10° NNW 23:44:09 46° NW 23:44:09 46° NW
MSX 4.0 23:46:18 10° N 23:51:24 63° NW 23:51:24 63° NW
ATLAS 5 CENTAUR R/B 3.9 23:54:37 13° NE 23:54:37 13° NE 23:55:03 10° NE
